Regional Weather Roundup
Issued by NWS

Home | Current Version | Previous Version | Graphics & Text | Print | Product List | Glossary On
Versions: 1 2 3 4 5 6 7 8 9 10 11 12 13 14 15 16 17 18 19 20 21 22 23 24 25 26 27 28 29 30 31 32 33 34 35 36 37 38 39 40 41 42 43 44 45 46 47 48 49 50
000
ASUS45 KCYS 220710
RWRWY

WYOMING REGIONAL WEATHER ROUNDUP
NATIONAL WEATHER SERVICE CHEYENNE WY
100 AM MDT FRI AUG 22 2014

NOTE:  "FAIR" INDICATES FEW OR NO CLOUDS BELOW 12,000 FEET
WITH NO SIGNIFICANT WEATHER AND/OR OBSTRUCTIONS TO VISIBILITY.

WYZ001-220800-
YELLOWSTONE NATIONAL PARK

CITY           SKY/WX    TMP DP  RH WIND       PRES   REMARKS
LK YELLOWSTONE   N/A     45  42  89 VRB3      30.28R
W YELLOWSTONE  NOT AVBL

$$
WYZ002>013-054>058-071-098>099-220800-
NORTHERN WYOMING

CITY           SKY/WX    TMP DP  RH WIND       PRES   REMARKS
JACKSON        CLOUDY    48  46  93 CALM      30.22S
CODY           CLOUDY    54  50  87 E3        30.14F
GREYBULL       MOCLDY    59  49  69 NW7       30.07F
WORLAND        MOCLDY    55  47  74 SE3       30.09F
SHERIDAN       CLOUDY    58  54  86 W8        30.12S
BUFFALO        MOCLDY    55  53  93 N8        30.16R
GILLETTE       CLOUDY    58  54  86 N8        30.11R
HULETT         CLOUDY    61  57  88 MISG      30.11
NEWCASTLE      FAIR      59  54  82 NW5       30.05

$$
WYZ014>020-022>026-101>103-220800-
CENTRAL WYOMING

CITY           SKY/WX    TMP DP  RH WIND       PRES   REMARKS
BIG PINEY      LGT RAIN  50  47  89 W10       30.24R
PINEDALE       CLOUDY    48  45  87 NW6       30.25R
DUBOIS         LGT RAIN  45  41  87 NW7       30.23F
LANDER         CLEAR     57  41  55 NW6       30.12R
RIVERTON       CLEAR     59  47  64 NE10      30.11F
CASPER         CLEAR     55  51  86 N6        30.15R
DOUGLAS        PTCLDY    59  45  59 N7        30.13R

$$
WYZ021-027>030-104>119-220800-
SOUTHERN WYOMING

CITY           SKY/WX    TMP DP  RH WIND       PRES   REMARKS
EVANSTON       PTCLDY    53  43  68 E6        30.20S
KEMMERER       MOSUNNY   48  45  87 N7        30.22F
FORT BRIDGER   FAIR      55  43  65 S10       30.22S
ROCK SPRINGS   MOCLDY    54  44  69 S7        30.21S
DIXON          FAIR      53  46  77 E7        30.26S
RAWLINS        CLEAR     49  43  80 SE5       30.23S
SARATOGA       FAIR      52  45  76 MISG      30.26S
LARAMIE        CLOUDY    54  44  69 S8        30.26F
CHEYENNE       CLOUDY    60  46  59 W8        30.20S
TORRINGTON     PTCLDY    65  50  58 NW6       30.05F
PINE BLUFFS    CLOUDY    63  50  63 SW3       30.14S

$$



USA.gov is the U.S. government's official web portal to all federal, state and local government web resources and services.